Location: site
(53.0000°N, 23.0500°E)
Time: 17:24:42
(UTC+01:00)

SAOCOM 1-A - Pass Details

Date: 26 January 2020
Orbit: 621 x 623 km, 97.9° (Epoch: 25 February)

Event Time Altitude Azimuth Distance (km) Brightness Sun altitude
Exits shadow 19:56:03 - 347° (NNW) 2,344 ? -35.1°
Reaches altitude 10° 19:57:41 10° 330° (NNW) 2,005 ? -35.3°
Maximum altitude 19:59:16 12° 309° (NW) 1,880 ? -35.5°
Drops below altitude 10° 20:00:51 10° 287° (WNW) 2,000 ? -35.7°
Sets 20:04:23 0° 256° (WSW) 2,901 ? -36.2°
